Location: Bonningues
(50.7927°N, 2.0150°E)
Time: 09:04:33
(UTC+00:00)

USA 32 - Pass Details

Date: 08 August 2020
Orbit: 778 x 782 km, 85.0° (Epoch: 20 September)

Event Time Altitude Azimuth Distance (km) Brightness Sun altitude
Exits shadow 20:53:02 12° 165° (SSE) 2,166 5.8 -12.1°
Maximum altitude 20:57:41 54° 90° (E) 947 4.2 -12.7°
Drops below altitude 10° 21:02:47 10° 14° (NNE) 2,346 7.0 -13.2°
Sets 21:05:11 0° 10° (N) 3,278 7.8 -13.5°
